Starlink 3972

operational
NORAD ID: 52669 Int'l Des: 2022-053 Owner: SPXS Country: US Constellation: starlink
LEOCIRCULAR

关于 Starlink 3972

正在加载描述...

实时位置

正在加载3D地球...

即将过境

高度历史

Altitude vs Time

uPlot chart will show altitude changes over time

两行轨道根数

1 52669U 22053P 25303.61780671 -.00000401 00000-0 -71140-5 0 9994
2 52669 53.2190 18.0328 0001570 104.7275 255.3891 15.08837692191408
Epoch: Oct 30, 2025 • Age: 24 hours

当前状态

高度 545.3 km
速度 7.60 km/s
星下点 52.94°N, 172.46°W
发射日期 May 18, 2022
运行时间 3.4 years
类型 internet

技术详情

分类 Payload
质量 297.00 kg
干质量 275.00 kg
总质量 297.00 kg
长度 0.20 m
直径 2.80 m
跨度 9.00 m
形状 Box + pan
制造商 SPXS
平台类型 Starlink
阶段状态 In Orbit
所有者/国家 SPXS/US

大型星座

Loading constellations...